When you browse on this site, cookies collect data to enhance your experience and personalize the content and advertising you see.
Visit our Privacy Policy to learn more. By continuing to use the site, you agree to this use of cookies and data.
  • In Germany
  • List of Countries
  • For 7 days
  • Water Temperature
  • Satellite Maps
  • Weather Map
  • Weather Widgets
  • user-avatar
    Login

    Hourly Weather Andora

    Today, 19 June, Wednesday

    Time Temperature Precipitation Wind Pressure Humidity
    00:00 +11°C° 0 mm 1 mps 622 mmHg 62%
    01:00 +11°C° 0 mm 1 mps 622 mmHg 59%
    02:00 +11°C° 0 mm 1 mps 622 mmHg 56%
    03:00 +11°C° 0 mm 1 mps 622 mmHg 53%
    04:00 +12°C° 0 mm 1 mps 623 mmHg 54%
    05:00 +13°C° 0 mm 1 mps 623 mmHg 55%
    06:00 +14°C° 0 mm 1 mps 624 mmHg 56%
    07:00 +16°C° 0 mm 1 mps 625 mmHg 48%
    08:00 +18°C° 0 mm 2 mps 626 mmHg 40%
    09:00 +20°C° 0 mm 2 mps 626 mmHg 32%
    10:00 +20°C° 0 mm 3 mps 626 mmHg 31%
    11:00 +21°C° 0 mm 3 mps 627 mmHg 30%
    12:00 +22°C° 0 mm 3 mps 627 mmHg 30%
    13:00 +22°C° 0 mm 3 mps 626 mmHg 31%
    14:00 +21°C° 0 mm 3 mps 626 mmHg 33%
    15:00 +21°C° 0 mm 3 mps 625 mmHg 34%
    16:00 +20°C° 0 mm 3 mps 625 mmHg 40%
    17:00 +19°C° 0 mm 2 mps 625 mmHg 46%
    18:00 +19°C° 0 mm 2 mps 625 mmHg 52%
    19:00 +16°C° 0 mm 1 mps 624 mmHg 59%
    20:00 +14°C° 0 mm 1 mps 624 mmHg 67%
    21:00 +12°C° 0 mm 1 mps 623 mmHg 74%
    22:00 +12°C° 0 mm 1 mps 623 mmHg 72%
    23:00 +11°C° 0 mm 0 mps 623 mmHg 71%

    Tomorrow, 20 June, Thursday

    Time Temperature Precipitation Wind Pressure Humidity
    00:00 +11°C° 0 mm 0 mps 623 mmHg 70%
    01:00 +11°C° 0 mm 0 mps 623 mmHg 70%
    02:00 +10°C° 0 mm 0 mps 623 mmHg 71%
    03:00 +10°C° 0 mm 0 mps 623 mmHg 72%
    04:00 +11°C° 0 mm 0 mps 624 mmHg 73%
    05:00 +12°C° 0 mm 0 mps 624 mmHg 73%
    06:00 +12°C° 0 mm 0 mps 625 mmHg 74%
    07:00 +15°C° 0.1 mm 1 mps 625 mmHg 68%
    08:00 +16°C° 0.1 mm 2 mps 626 mmHg 62%
    09:00 +18°C° 0.1 mm 2 mps 627 mmHg 56%
    10:00 +19°C° 0.1 mm 3 mps 627 mmHg 53%
    11:00 +19°C° 0.1 mm 3 mps 627 mmHg 49%
    12:00 +20°C° 0.1 mm 4 mps 627 mmHg 45%
    13:00 +19°C° 0.2 mm 4 mps 627 mmHg 50%
    14:00 +19°C° 0.2 mm 3 mps 626 mmHg 55%
    15:00 +18°C° 0.2 mm 3 mps 626 mmHg 61%
    16:00 +17°C° 1.1 mm 2 mps 625 mmHg 70%
    17:00 +16°C° 1.1 mm 2 mps 625 mmHg 78%
    18:00 +15°C° 1.1 mm 1 mps 624 mmHg 87%
    19:00 +14°C° 2.6 mm 1 mps 624 mmHg 89%
    20:00 +12°C° 2.6 mm 1 mps 624 mmHg 90%
    21:00 +11°C° 2.6 mm 1 mps 624 mmHg 92%
    22:00 +11°C° 0 mm 1 mps 624 mmHg 90%
    23:00 +11°C° 0 mm 1 mps 624 mmHg 89%

    Day after tomorrow, 21 June, Friday

    Time Temperature Precipitation Wind Pressure Humidity
    00:00 +10°C° 0 mm 1 mps 624 mmHg 87%
    01:00 +10°C° 0 mm 1 mps 624 mmHg 88%
    02:00 +10°C° 0 mm 1 mps 623 mmHg 88%
    03:00 +9°C° 0 mm 0 mps 623 mmHg 89%
    04:00 +10°C° 0 mm 0 mps 624 mmHg 89%
    05:00 +10°C° 0 mm 0 mps 624 mmHg 89%
    06:00 +11°C° 0 mm 0 mps 625 mmHg 89%
    07:00 +13°C° 0.4 mm 1 mps 625 mmHg 85%
    08:00 +15°C° 0.4 mm 1 mps 626 mmHg 81%
    09:00 +16°C° 0.4 mm 2 mps 626 mmHg 76%
    10:00 +16°C° 0.8 mm 2 mps 626 mmHg 77%
    11:00 +16°C° 0.8 mm 2 mps 627 mmHg 77%
    12:00 +16°C° 0.8 mm 2 mps 627 mmHg 77%
    13:00 +16°C° 1.3 mm 2 mps 626 mmHg 79%
    14:00 +16°C° 1.3 mm 2 mps 626 mmHg 81%
    15:00 +15°C° 1.3 mm 2 mps 626 mmHg 82%
    16:00 +15°C° 1.1 mm 1 mps 625 mmHg 85%
    17:00 +14°C° 1.1 mm 1 mps 625 mmHg 88%
    18:00 +13°C° 1.1 mm 1 mps 625 mmHg 91%
    19:00 +12°C° 1.7 mm 1 mps 625 mmHg 92%
    20:00 +11°C° 1.7 mm 1 mps 625 mmHg 93%
    21:00 +10°C° 1.7 mm 1 mps 625 mmHg 94%
    22:00 +10°C° 0.2 mm 1 mps 625 mmHg 94%
    23:00 +9°C° 0.2 mm 0 mps 625 mmHg 94%

    22 June, Saturday

    Time Temperature Precipitation Wind Pressure Humidity
    00:00 +9°C° 0.2 mm 0 mps 625 mmHg 94%
    01:00 +8°C° 0 mm 0 mps 625 mmHg 95%
    02:00 +8°C° 0 mm 0 mps 624 mmHg 95%
    03:00 +9°C° 0 mm 1 mps 624 mmHg 96%
    04:00 +10°C° 0 mm 1 mps 625 mmHg 96%
    05:00 +11°C° 0 mm 1 mps 625 mmHg 96%
    06:00 +11°C° 0 mm 1 mps 625 mmHg 96%
    07:00 +13°C° 0 mm 1 mps 626 mmHg 90%
    08:00 +14°C° 0 mm 1 mps 626 mmHg 85%
    09:00 +16°C° 0 mm 2 mps 627 mmHg 79%
    10:00 +17°C° 0.1 mm 2 mps 627 mmHg 73%
    11:00 +18°C° 0.1 mm 2 mps 627 mmHg 66%
    12:00 +19°C° 0.1 mm 2 mps 628 mmHg 60%
    13:00 +19°C° 0.1 mm 2 mps 627 mmHg 57%
    14:00 +20°C° 0.1 mm 2 mps 627 mmHg 54%
    15:00 +20°C° 0.1 mm 2 mps 627 mmHg 50%
    16:00 +19°C° 0 mm 2 mps 627 mmHg 55%
    17:00 +19°C° 0 mm 2 mps 626 mmHg 60%
    18:00 +19°C° 0 mm 1 mps 626 mmHg 65%
    19:00 +16°C° 0 mm 1 mps 625 mmHg 69%
    20:00 +14°C° 0 mm 1 mps 625 mmHg 74%
    21:00 +12°C° 0 mm 1 mps 624 mmHg 78%
    22:00 +12°C° 0 mm 1 mps 624 mmHg 78%
    23:00 +12°C° 0 mm 1 mps 624 mmHg 78%

    23 June, Sunday

    Time Temperature Precipitation Wind Pressure Humidity
    00:00 +12°C° 0 mm 1 mps 624 mmHg 78%
    01:00 +12°C° 0 mm 1 mps 624 mmHg 78%
    02:00 +12°C° 0 mm 1 mps 624 mmHg 78%
    03:00 +12°C° 0 mm 1 mps 623 mmHg 77%
    04:00 +13°C° 0 mm 1 mps 624 mmHg 75%
    05:00 +14°C° 0 mm 1 mps 624 mmHg 72%
    06:00 +15°C° 0 mm 1 mps 625 mmHg 69%
    07:00 +17°C° 0 mm 2 mps 626 mmHg 59%
    08:00 +19°C° 0 mm 2 mps 627 mmHg 49%
    09:00 +23°C° 0 mm 2 mps 628 mmHg 38%
    10:00 +24°C° 0 mm 2 mps 628 mmHg 37%
    11:00 +25°C° 0 mm 3 mps 628 mmHg 35%
    12:00 +26°C° 0 mm 3 mps 628 mmHg 34%
    13:00 +26°C° 0 mm 3 mps 628 mmHg 35%
    14:00 +26°C° 0 mm 3 mps 628 mmHg 35%
    15:00 +26°C° 0 mm 3 mps 628 mmHg 35%
    16:00 +24°C° 0 mm 2 mps 627 mmHg 42%
    17:00 +23°C° 0 mm 2 mps 627 mmHg 49%
    18:00 +21°C° 0 mm 2 mps 626 mmHg 56%
    19:00 +19°C° 0 mm 2 mps 626 mmHg 58%
    20:00 +17°C° 0 mm 2 mps 625 mmHg 59%
    21:00 +16°C° 0 mm 2 mps 625 mmHg 61%
    22:00 +16°C° 0 mm 2 mps 625 mmHg 57%
    23:00 +15°C° 0 mm 2 mps 625 mmHg 53%

    24 June, Monday

    Time Temperature Precipitation Wind Pressure Humidity
    00:00 +15°C° 0 mm 2 mps 625 mmHg 49%
    01:00 +15°C° 0 mm 2 mps 625 mmHg 49%
    02:00 +15°C° 0 mm 2 mps 625 mmHg 48%
    03:00 +15°C° 0 mm 2 mps 625 mmHg 48%
    04:00 +16°C° 0 mm 2 mps 625 mmHg 49%
    05:00 +17°C° 0 mm 2 mps 625 mmHg 51%
    06:00 +17°C° 0 mm 2 mps 626 mmHg 52%
    07:00 +20°C° 0 mm 2 mps 627 mmHg 47%
    08:00 +23°C° 0 mm 2 mps 628 mmHg 41%
    09:00 +26°C° 0 mm 2 mps 629 mmHg 36%
    10:00 +27°C° 0 mm 3 mps 629 mmHg 32%
    11:00 +29°C° 0 mm 3 mps 630 mmHg 28%
    12:00 +30°C° 0 mm 4 mps 630 mmHg 24%
    13:00 +30°C° 0 mm 4 mps 630 mmHg 24%
    14:00 +30°C° 0 mm 5 mps 630 mmHg 24%
    15:00 +30°C° 0 mm 5 mps 630 mmHg 23%
    16:00 +28°C° 0 mm 4 mps 629 mmHg 31%
    17:00 +27°C° 0 mm 3 mps 629 mmHg 39%
    18:00 +25°C° 0 mm 3 mps 628 mmHg 47%
    19:00 +23°C° 0 mm 2 mps 628 mmHg 48%
    20:00 +19°C° 0 mm 2 mps 627 mmHg 49%
    21:00 +17°C° 0 mm 2 mps 627 mmHg 49%
    22:00 +17°C° 0 mm 2 mps 627 mmHg 46%
    23:00 +17°C° 0 mm 2 mps 627 mmHg 42%
    Show more